Weather History for KRFD - May, 2013

Change the Weather History Date:

Sunday, May 5, 2013

  Actual Average Record
Temperature  
Mean Temperature 62 °F 57 °F  
Max Temperature 76 °F 68 °F 93 °F (1949)
Min Temperature 47 °F 45 °F 29 °F (1944)
Degree Days  
Heating Degree Days 3 9  
Month to date heating degree days 40 48  
Since 1 July heating degree days 6416 6388  
Cooling Degree Days 0 1  
Month to date cooling degree days 7 3  
Year to date cooling degree days 16 11  
Growing Degree Days 10 (Base 50)    
Moisture  
Dew Point 47 °F    
Average Humidity 67    
Maximum Humidity 100    
Minimum Humidity 33    
Precipitation  
Precipitation 0.00 in 0.11 in 1.53 in (1965)
Month to date precipitation 0.44 0.56  
Year to date precipitation 16.74 9.01  
Snow  
Snow 0.00 in 0.00 in T in (2014)
Month to date snowfall 0.0 0.0  
Since 1 July snowfall 40.5 36.7  
Snow Depth 0.00 in    
Sea Level Pressure  
Sea Level Pressure 30.03 in    
Wind  
Wind Speed 8 mph (NE)    
Max Wind Speed 20 mph    
Max Gust Speed 28 mph    
Visibility 8 miles    
Events Fog    
T = Trace of Precipitation, MM = Missing Value Source: NWS Daily Summary

Daily Weather History Graph

Daily Weather History Graph

Search for Another Location

Airport or City:

Trip Planner

Search our weather history database for the weather conditions in past years. The results will help you decide how hot, cold, wet, or windy it might be!

Date:

Astronomy

May. 05, 2013 Rise Set
Actual Time 5:46 AM CDT 8:00 PM CDT
Civil Twilight 5:15 AM CDT 8:31 PM CDT
Nautical Twilight 4:37 AM CDT 9:09 PM CDT
Astronomical Twilight 3:55 AM CDT 9:52 PM CDT
Moon 3:21 AM CDT (5/5) 3:55 PM CDT (5/5)
Length of Visible Light 15h 15m
Length of Day
14h 13m
Waning Crescent, 18% of the Moon is Illuminated
May 5
Waning Crescent
May 9
New
May 17
First Quarter
May 24
Full
May 31
Last Quarter

Hourly Weather History & Observations

Time (CDT) Temp. Dew Point Humidity Pressure Visibility Wind Dir Wind Speed Gust Speed Precip Events Conditions
12:54 AM 55.0 °F 52.0 °F 89% 30.07 in 10.0 mi Calm Calm - N/A   Mostly Cloudy
1:54 AM 51.1 °F 51.1 °F 100% 30.06 in 6.0 mi North 3.5 mph - N/A   Clear
2:54 AM 52.0 °F 50.0 °F 93% 30.04 in 7.0 mi NNE 4.6 mph - N/A   Clear
3:54 AM 50.0 °F 48.9 °F 96% 30.03 in 7.0 mi NNE 5.8 mph - N/A Fog Shallow Fog
4:54 AM 52.0 °F 51.1 °F 97% 30.02 in 6.0 mi NNE 3.5 mph - N/A   Clear
5:41 AM 50.0 °F 48.2 °F 94% 30.04 in 1.0 mi Calm Calm - N/A   Clear
5:54 AM 48.0 °F 46.9 °F 96% 30.04 in 0.5 mi Calm Calm - N/A Fog Fog
6:02 AM 48.2 °F 46.4 °F 93% 30.04 in 1.5 mi North 3.5 mph - N/A   Mostly Cloudy
6:14 AM 48.2 °F 48.2 °F 100% 30.04 in 2.0 mi North 3.5 mph - N/A   Mostly Cloudy
6:22 AM 48.2 °F 48.2 °F 100% 30.04 in 3.0 mi NNE 3.5 mph - N/A   Mostly Cloudy
6:35 AM 48.2 °F 48.2 °F 100% 30.05 in 6.0 mi NNE 5.8 mph - N/A   Mostly Cloudy
6:54 AM 50.0 °F 48.0 °F 93% 30.05 in 10.0 mi NNE 5.8 mph - N/A   Mostly Cloudy
7:54 AM 57.0 °F 46.9 °F 69% 30.05 in 10.0 mi NNE 5.8 mph - N/A   Mostly Cloudy
8:54 AM 61.0 °F 46.0 °F 58% 30.06 in 10.0 mi NNE 8.1 mph - N/A   Mostly Cloudy
9:54 AM 64.9 °F 46.9 °F 52% 30.05 in 10.0 mi NE 9.2 mph - N/A   Mostly Cloudy
10:54 AM 69.1 °F 50.0 °F 51% 30.04 in 10.0 mi NNE 10.4 mph - N/A   Mostly Cloudy
11:54 AM 71.1 °F 48.9 °F 45% 30.03 in 10.0 mi NE 10.4 mph 17.3 mph N/A   Mostly Cloudy
12:54 PM 73.4 °F 46.4 °F 38% 30.01 in 10.0 mi NE 10.4 mph 18.4 mph N/A   Mostly Cloudy
1:54 PM 73.9 °F 45.0 °F 35% 30.00 in 10.0 mi ENE 12.7 mph - N/A   Mostly Cloudy
2:54 PM 73.0 °F 44.1 °F 35% 29.99 in 10.0 mi ENE 11.5 mph 21.9 mph N/A   Mostly Cloudy
3:54 PM 73.0 °F 43.0 °F 34% 29.99 in 10.0 mi ENE 17.3 mph 27.6 mph N/A   Mostly Cloudy
4:54 PM 73.0 °F 45.0 °F 37% 29.99 in 10.0 mi ENE 13.8 mph - N/A   Mostly Cloudy
5:54 PM 71.1 °F 43.0 °F 36% 30.00 in 10.0 mi ENE 11.5 mph - N/A   Overcast
6:54 PM 70.0 °F 44.1 °F 39% 30.01 in 10.0 mi ENE 11.5 mph - N/A   Overcast
7:54 PM 64.9 °F 43.0 °F 45% 30.02 in 10.0 mi NE 5.8 mph - N/A   Overcast
8:54 PM 63.0 °F 45.0 °F 52% 30.03 in 10.0 mi ENE 3.5 mph - N/A   Overcast
9:54 PM 61.0 °F 46.0 °F 58% 30.05 in 10.0 mi ENE 5.8 mph - N/A   Mostly Cloudy
10:54 PM 60.1 °F 42.1 °F 51% 30.06 in 10.0 mi East 8.1 mph - N/A   Mostly Cloudy
11:54 PM 57.0 °F 39.9 °F 53% 30.05 in 10.0 mi Calm Calm - N/A   Scattered Clouds